Regional Weather Roundup
Issued by NWS Wilmington, NC

Home | Current Version | Previous Version | Text Only | Print | Product List | Glossary On
Versions: 1 2 3 4 5 6 7 8 9 10 11 12 13 14 15 16 17 18 19 20 21 22 23 24 25 26 27 28 29 30 31 32 33 34 35 36 37 38 39 40 41 42 43 44 45 46 47 48 49 50
000
ASUS42 KILM 281410
RWRILM
RWRILM
REGIONAL HOURLY WEATHER ROUNDUP
NATIONAL WEATHER SERVICE WILMINGTON NC
1000 AM EDT MON JUL 28 2014

NOTE: "FAIR" INDICATES FEW OR NO CLOUDS BELOW 12,000 FEET WITH NO
SIGNIFICANT WEATHER AND/OR OBSTRUCTIONS TO VISIBILITY.

...............WFO WILMINGTON COUNTY WARNING AREA...............

......COASTAL NC AND SC COUNTIES......

CITY           SKY/WX    TMP DP  RH WIND       PRES   REMARKS
WILMINGTON     CLOUDY    83  74  74 W8        29.82S
SOUTHPORT      CLOUDY    84  76  76 W12G17    29.83R HX  92
N MYRTLE BEACH PTSUNNY   83  74  74 W8G17     29.84R
MYRTLE BEACH   SUNNY     82  73  74 W8        29.85R

......INLAND NC AND SC COUNTIES.......

CITY           SKY/WX    TMP DP  RH WIND       PRES   REMARKS
LUMBERTON      PTSUNNY   84  70  62 W9        29.82S
ELIZABETHTOWN  PTSUNNY   81  73  75 SW5       29.83R
WHITEVILLE     PTSUNNY   84  75  73 W5        29.83R HX  91
FLORENCE       PTSUNNY   84  74  71 W10       29.83F HX  91
DARLINGTON     MOSUNNY   82  70  65 W7        29.85R

....................REST OF NORTH CAROLINA......................

.........EASTERN NC.........

CITY           SKY/WX    TMP DP  RH WIND       PRES   REMARKS
CAPE HATTERAS  CLOUDY    81  80  97 SW13      29.78S FOG     HX  91
JACKSONVILLE   CLOUDY    82  72  69 SW9       29.82R
MOREHEAD CITY  CLOUDY    84  76  76 SW14      29.80  HX  93
KENANSVILLE    MOSUNNY   81  67  62 SW8       29.82S
NEW BERN       CLOUDY    84  72  67 SW9       29.81R
ELIZABETH CITY MOSUNNY   84  69  60 SW15G21   29.73R

.........CENTRAL NC.........

CITY           SKY/WX    TMP DP  RH WIND       PRES   REMARKS
RALEIGH DURHAM MOSUNNY   80  66  62 W10       29.81R
ROCKY MOUNT    SUNNY     83  66  56 W13G20    29.79R
ROANOKE RAPIDS NOT AVBL
FAYETTEVILLE   MOSUNNY   85  67  54 SW13      29.81S
HOFFMAN        SUNNY     84  66  55 W12G18    29.84S

.........WESTERN NC.........

CITY           SKY/WX    TMP DP  RH WIND       PRES   REMARKS
CHARLOTTE      MOSUNNY   80  69  69 W5        29.85S
GREENSBORO     MOSUNNY   80  64  58 SW14      29.82R
HICKORY        NOT AVBL
BOONE          NOT AVBL
ASHEVILLE      NOT AVBL

.....................REST OF SOUTH CAROLINA.....................

.........EASTERN SC.........

CITY           SKY/WX    TMP DP  RH WIND       PRES   REMARKS
CHARLESTON     PTSUNNY   87  75  67 SW7       29.88S HX  96
BEAUFORT MCAS  PTSUNNY   87  76  69 W14       29.90S HX  97
HILTON HEAD    NOT AVBL

.........CENTRAL SC.........

CITY           SKY/WX    TMP DP  RH WIND       PRES   REMARKS
COLUMBIA       CLOUDY    86  73  65 W8        29.85R HX  93
ORANGEBURG     CLOUDY    84  73  69 W13       29.87R HX  90
SUMTER SHAW    PTSUNNY   83  76  79 W10       29.84R HX  90

.........WESTERN SC.........

CITY           SKY/WX    TMP DP  RH WIND       PRES   REMARKS
GREENVILLE     NOT AVBL
ROCK HILL      SUNNY     81  72  74 W10       29.86S
ANDERSON       MOSUNNY   83  68  60 W12       29.89S
CLEMSON        NOT AVBL
GREENWOOD      PTSUNNY   84  71  65 W7        29.90R


...................COASTAL AND OFFSHORE REPORTS..................

................LOCAL PIERS AND NC RESERVE................


STATION/POSITION TIME  SKY/WX   TEMP    WIND        PRES    VSBY
                                AIR SEA DIR/SP/G
                 (UTC)          (F)     (DEG/KT/KT) (MB)    (MI)
JOHNY MRCER PIER 1400            83 83  250/  9/ 12 1009.3R
NC RESRV MASNBRO 1300            83     240/  4     1009.0S
OCEAN CREST PIER 1400            84 84  260/ 20/ 22 1009.0R
SPRINGMAID  PIER 1400            81 83  240/  9/ 11 1010.6R


................COASTAL AND OFFSHORE BUOYS................


STATION/POSITION TIME  SKY/WX   TEMP    WIND        PRES    VSBY
                                AIR SEA DIR/SP/G
                 (UTC)          (F)     (DEG/KT/KT) (MB)    (MI)
DIMNDSHOAL 41025 1400                   VRB 17/ 21  1008.4R
WVE H/P(F/S)=  6/ 7 WND WVE H/P(F/S)=  5/ 7 SWL H/P/D(F/S/D)=  2/150/ 8

CAPE LOOKOUT     1300            83     230/ 10/ 13 1008.8R
ONSLOW BAY 41036 1300            83 81  240/ 14/ 16 1009.4F
5 WRITEBCH 41038 1300            80 82  250/ 14/ 16   N/A
MASONBORO  41110 1400               82                N/A
WVE H/P(F/S)=  3/ 6 WND WVE H/P(F/S)=  3/ 6

WILM HARBR 41108 NOT AVBL
27WRITEBCH 41037 1300            80 82  240/ 16/ 17 1009.3F
FRYING PAN 41013 NOT AVBL
SUNST NRSH 41024 1300            84     250/ 16/ 17 1009.6S
CAPRS NRSH 41029 1300            84     260/ 16/ 21   N/A
EDISTO     41004 1400            84 83  240/ 17/ 19 1011.0F
WVE H/P(F/S)=  4/ 6 WND WVE H/P(F/S)=  3/ 6 SWL H/P/D(F/S/D)=  2/10



..........OFFSHORE BUOYS BEYOND 100 NM OFFSHORE...........
.....IN A TRIANGLE---HAT TO BERMUDA TO BAHAMAS TO HAT.....


STATION/POSITION TIME  SKY/WX   TEMP    WIND        PRES    VSBY
                                AIR SEA DIR/SP/G
                 (UTC)          (F)     (DEG/KT/KT) (MB)    (MI)
150E HAT   41001 NOT AVBL
W BERMUDA  41048 1252            81 82  200/ 16/ 19 1017.6
WVE H/P(F/S)=  7/ 7 WND WVE H/P(F/S)=  7/ 7 SWL H/P/D(F/S/D)=  2/140/ 8

ATLANTIC S 41049 1308            82 83  120/  6/  8 1021.9R
WVE H/P(F/S)=  3/ 8 WND WVE H/P(F/S)=  2/ 3 SWL H/P/D(F/S/D)=  3/120/ 8

E BAHAMAS  41046 1258            83 84  140/  8/ 10 1019.9R
WVE H/P(F/S)=  4/ 9 WND WVE H/P(F/S)=  2/ 4 SWL H/P/D(F/S/D)=  3/110/ 9

NE BAHAMAS 41047 1350            83 85  230/  6/  8 1019.3F
WVE H/P(F/S)=  3/ 8 WND WVE H/P(F/S)=  2/ 4 SWL H/P/D(F/S/D)=  3/130/ 8

120E CANVRL41010 1400            84 84  270/ 16/ 17 1017.3R
WVE H/P(F/S)=  4/ 5 WND WVE H/P(F/S)=  3/ 5 SWL H/P/D(F/S/D)=  2/140/ 9


END


USA.gov is the U.S. government's official web portal to all federal, state and local government web resources and services.